Weather History for Gage, OK

Change the Weather History Date:

Sunday, January 20, 2013

  Actual Average Record
Temperature  
Mean Temperature 42 °F -  
Max Temperature 62 °F 46 °F 86 °F (1986)
Min Temperature 21 °F 22 °F -2 °F (1984)
Degree Days  
Heating Degree Days 24    
Moisture  
Dew Point 24 °F    
Average Humidity 60    
Maximum Humidity 92    
Minimum Humidity 24    
Precipitation  
Precipitation 0.00 in - - ()
Sea Level Pressure  
Sea Level Pressure 30.22 in    
Wind  
Wind Speed 7 mph (South)    
Max Wind Speed 23 mph    
Max Gust Speed 33 mph    
Visibility 10 miles    
Events      
Averages and records for this station are not official NWS values.
T = Trace of Precipitation, MM = Missing Value Source: NWS Daily Summary

Daily Weather History Graph

Daily Weather History Graph

Search for Another Location

Airport:

Trip Planner

Search our weather history database for the weather conditions in past years. The results will help you decide how hot, cold, wet, or windy it might be!

Date:

Astronomy

Jan. 20, 2013 Rise Set
Actual Time 7:47 AM CST 5:53 PM CST
Civil Twilight 7:19 AM CST 6:20 PM CST
Nautical Twilight 6:48 AM CST 6:52 PM CST
Astronomical Twilight 6:17 AM CST 7:22 PM CST
Moon 12:54 PM CST (1/20) 2:22 AM CST (1/20)
Length of Visible Light 11h 00m
Length of Day
10h 05m
Waxing Gibbous, 66% of the Moon is Illuminated
Jan 20
Waxing Gibbous
Jan 26
Full
Feb 3
Last Quarter
Feb 10
New
Feb 17
First Quarter

Hourly Weather History & Observations

Time (CST) Temp. Windchill Dew Point Humidity Pressure Visibility Wind Dir Wind Speed Gust Speed Precip Events Conditions
12:53 AM 28.0 °F 21.7 °F 21.9 °F 78% 30.26 in 10.0 mi SW 5.8 mph - N/A   Clear
1:53 AM 30.0 °F 25.2 °F 23.0 °F 75% 30.26 in 10.0 mi SW 4.6 mph - N/A   Clear
2:53 AM 28.9 °F 23.9 °F 23.0 °F 78% 30.25 in 10.0 mi WSW 4.6 mph - N/A   Clear
3:53 AM 24.1 °F 19.7 °F 21.0 °F 88% 30.25 in 10.0 mi WSW 3.5 mph - N/A   Clear
4:53 AM 25.0 °F 18.1 °F 21.0 °F 85% 30.23 in 10.0 mi WSW 5.8 mph - N/A   Clear
5:53 AM 25.0 °F 18.1 °F 21.9 °F 88% 30.23 in 10.0 mi WSW 5.8 mph - N/A   Clear
6:53 AM 24.1 °F 18.2 °F 21.0 °F 88% 30.24 in 10.0 mi SW 4.6 mph - N/A   Clear
7:53 AM 21.9 °F 17.2 °F 19.9 °F 92% 30.25 in 10.0 mi West 3.5 mph - N/A   Clear
8:53 AM 28.0 °F - 23.0 °F 81% 30.25 in 10.0 mi Calm Calm - N/A   Clear
9:53 AM 36.0 °F - 28.0 °F 73% 30.24 in 10.0 mi Calm Calm - N/A   Clear
10:50 AM 48.2 °F - 26.6 °F 43% 30.20 in 10.0 mi SSE 13.8 mph - N/A   Clear
10:53 AM 50.0 °F - 27.0 °F 41% 30.22 in 10.0 mi SSE 13.8 mph - N/A   Clear
11:53 AM 53.1 °F - 27.0 °F 37% 30.19 in 10.0 mi SSE 8.1 mph - N/A   Clear
12:53 PM 57.0 °F - 24.1 °F 28% 30.14 in 10.0 mi South 11.5 mph - N/A   Clear
1:53 PM 57.9 °F - 24.1 °F 27% 30.11 in 10.0 mi South 11.5 mph - N/A   Clear
2:53 PM 60.1 °F - 25.0 °F 26% 30.09 in 10.0 mi South 5.8 mph - N/A   Clear
3:53 PM 62.1 °F - 25.0 °F 24% 30.10 in 10.0 mi NE 4.6 mph - N/A   Clear
4:53 PM 60.1 °F - 25.0 °F 26% 30.11 in 10.0 mi ENE 5.8 mph - N/A   Clear
5:53 PM 53.1 °F - 27.0 °F 37% 30.14 in 10.0 mi NNE 17.3 mph 26.5 mph N/A   Clear
6:53 PM 44.1 °F 40.1 °F 28.0 °F 53% 30.21 in 10.0 mi NE 6.9 mph - N/A   Clear
7:53 PM 39.9 °F 35.8 °F 28.0 °F 63% 30.25 in 10.0 mi ENE 5.8 mph - N/A   Clear
8:53 PM 35.1 °F 30.1 °F 27.0 °F 72% 30.27 in 10.0 mi ENE 5.8 mph - N/A   Clear
9:53 PM 37.0 °F 25.9 °F 27.0 °F 67% 30.29 in 10.0 mi NE 23.0 mph 33.4 mph N/A   Clear
10:53 PM 30.0 °F 19.1 °F 21.0 °F 69% 30.33 in 10.0 mi NNE 15.0 mph - N/A   Clear
11:53 PM 27.0 °F 17.3 °F 19.0 °F 72% 30.35 in 10.0 mi NNE 10.4 mph - N/A   Clear